Regional Weather Roundup
Issued by NWS

Home | Current Version | Previous Version | Graphics & Text | Print | Product List | Glossary On
Versions: 1 2 3 4 5 6 7 8 9 10 11 12 13 14 15 16 17 18 19 20 21 22 23 24 25 26 27 28 29 30 31 32 33 34 35 36 37 38 39 40 41 42 43 44 45 46 47 48 49 50
000
ASUS43 KOAX 170010
RWRNE

WEATHER ROUNDUP FOR NEBRASKA
NATIONAL WEATHER SERVICE OMAHA NE
600 PM CST SAT DEC 16 2017

NOTES: SATELLITE DATA IS BEING USED TO AUGMENT CLOUD COVER ABOVE
       12000 FEET.
       "FAIR" INDICATES FEW OR NO CLOUDS BELOW 12,000 FEET WITH NO
       SIGNIFICANT WEATHER AND/OR OBSTRUCTIONS TO VISIBILITY.


NEZ001>004-019>022-054>056-170100-
NEBRASKA PANHANDLE

CITY           SKY/WX    TMP DP  RH WIND       PRES   REMARKS
SCOTTSBLUFF    CLOUDY    36  29  75 NE12      29.94R WCI  28
6HR MIN TEMP:  36; 6HR MAX TEMP:  45;

ALLIANCE       CLOUDY    34  29  82 NE10      29.93R WCI  26
6HR MIN TEMP:  34; 6HR MAX TEMP:  38;

CHADRON        CLOUDY    33  26  75 NE8       29.97R WCI  26
6HR MIN TEMP:  33; 6HR MAX TEMP:  40;

GORDON         CLOUDY    35  28  78 NE7       29.96R WCI  29
6HR MIN TEMP:  34; 6HR MAX TEMP:  37;

KIMBALL        CLOUDY    33  26  77 NE8       29.89R WCI  26
SIDNEY         CLOUDY    35  28  75 NE12      29.90R WCI  27
6HR MIN TEMP:  34; 6HR MAX TEMP:  48;

$$

NEZ057>060-069>072-079>082-170100-
SOUTHWEST NEBRASKA

CITY           SKY/WX    TMP DP  RH WIND       PRES   REMARKS
NORTH PLATTE   CLOUDY    36  29  75 NE5       29.90R WCI  32
6HR MIN TEMP:  36; 6HR MAX TEMP:  48;

IMPERIAL       CLOUDY    37  28  70 NE13      29.87R WCI  29
6HR MIN TEMP:  37; 6HR MAX TEMP:  50;

LEXINGTON      CLOUDY    38  28  67 NE8       29.89R WCI  32
MCCOOK         CLEAR     41  29  62 NE17      29.84R
6HR MIN TEMP:  41; 6HR MAX TEMP:  56;

OGALLALA       CLOUDY    39  32  75 NE14      29.91R WCI  31
$$

NEZ005>010-023>029-035>040-094-170100-
NORTH CENTRAL NEBRASKA

CITY           SKY/WX    TMP DP  RH WIND       PRES   REMARKS
VALENTINE      CLOUDY    39  31  72 N6        29.97R WCI  35
6HR MIN TEMP:  39; 6HR MAX TEMP:  41;

AINSWORTH      CLOUDY    37  33  85 NE7       29.96R WCI  32
BROKEN BOW     CLOUDY    38  30  73 N9        29.91R WCI  31
6HR MIN TEMP:  38; 6HR MAX TEMP:  46;

O`NEILL        CLOUDY    39  35  84 N6        29.96R WCI  35
ORD            CLOUDY    36  30  79 N7        29.92R WCI  30
6HR MIN TEMP:  36; 6HR MAX TEMP:  47;

THEDFORD       CLOUDY    38  33  83 NE12G17   29.95R WCI  30
$$

NEZ041-046>049-061>064-073>077-083>087-170100-
SOUTH CENTRAL NEBRASKA

CITY           SKY/WX    TMP DP  RH WIND       PRES   REMARKS
GRAND ISLAND   CLEAR     39  31  72 N13       29.90R WCI  31
6HR MIN TEMP:  39; 6HR MAX TEMP:  52;

AURORA         CLEAR     38  28  68 N10       29.89R WCI  31
HASTINGS       CLEAR     37  28  70 NE7       29.89R WCI  32
6HR MIN TEMP:  37; 6HR MAX TEMP:  54;

HEBRON         CLEAR     40  23  49 CALM      29.89R
HOLDREGE       CLEAR     40  30  67 NE12      29.87R WCI  33
KEARNEY        CLEAR     38  29  70 NE9       29.90R WCI  31
YORK           CLEAR     41  30  65 NE10      29.89R
$$

NEZ011>018-030>034-042>045-170100-
NORTHEAST NEBRASKA

CITY           SKY/WX    TMP DP  RH WIND       PRES   REMARKS
NORFOLK        PTCLDY    38  32  79 N10       29.93R WCI  31
6HR MIN TEMP:  38; 6HR MAX TEMP:  48;

ALBION         CLOUDY    38  32  78 N7        29.93R WCI  33
BLAIR          CLOUDY    44  29  57 N9        29.90S
COLUMBUS       CLOUDY    40  29  64 N9        29.92R WCI  34
FREMONT        CLEAR     43  28  54 N3        29.92R
TEKAMAH        CLEAR     40  26  57 N10       29.93R WCI  33
6HR MIN TEMP:  40; 6HR MAX TEMP:  53;

WAYNE          PTCLDY    35  30  83 N6        29.94S WCI  30
$$

NEZ050>053-065>068-078-088>093-170100-
SOUTHEAST NEBRASKA

CITY           SKY/WX    TMP DP  RH WIND       PRES   REMARKS
LINCOLN        CLEAR     38  24  57 NE5       29.92R WCI  34
6HR MIN TEMP:  38; 6HR MAX TEMP:  56;

OMAHA EPPLEY   CLOUDY    40  24  53 N12       29.90R WCI  33
6HR MIN TEMP:  40; 6HR MAX TEMP:  53;

BEATRICE       CLEAR     44  24  46 NE3       29.90R
FALLS CITY     CLEAR     47  25  42 CALM      29.90R
6HR MIN TEMP:  47; 6HR MAX TEMP:  56;

NEBRASKA CITY  CLEAR     45  25  45 CALM      29.90R
PLATTSMOUTH    CLEAR     47  27  45 CALM      29.90R HAZE
$$

NEZ044-045-051>053-067-170100-
OMAHA AREA

CITY           SKY/WX    TMP DP  RH WIND       PRES   REMARKS
OMAHA EPPLEY   CLOUDY    40  24  53 N12       29.90R WCI  33
6HR MIN TEMP:  40; 6HR MAX TEMP:  53;

BLAIR          CLOUDY    44  29  57 N9        29.90S
FREMONT        CLEAR     43  28  54 N3        29.92R
MILLARD        CLEAR     48  29  47 N3        29.90R
OFFUTT AFB     CLEAR     44  26  48 NE5       29.89R
PLATTSMOUTH    CLEAR     47  27  45 CALM      29.90R HAZE
WAHOO          FAIR      40  25  55 NE9       29.91R WCI  34
$$




USA.gov is the U.S. government's official web portal to all federal, state and local government web resources and services.